DLH7PC EDDN-EDDG

Flight info

Callsign DLH7PC
Flight time 0h 44m
Altitude 22000
Route SULUS1G SULUS L604 MASEK Z52 ARPEG Z850 HMM HMM1A
Aircraft A320/M-SDE3FGHIRWY/LB1

Departure

Time 2026-04-27 14:25
Airport Nuremberg Airport (EDDN)

Arrival

Time 2026-04-27 15:10
Airport Münster Osnabrück Airport (EDDG)
Time Latitude Longitude Altitude Speed Heading
2026-04-27 13:57 49.49525 11.07659 1023 ft 0 kts 188°
2026-04-27 14:16 49.49528 11.07660 1026 ft 3 kts 188°
2026-04-27 14:17 49.49548 11.07663 1026 ft 3 kts 181°
2026-04-27 14:17 49.49568 11.07662 1025 ft 3 kts 168°
2026-04-27 14:17 49.49587 11.07653 1026 ft 3 kts 145°
2026-04-27 14:17 49.49599 11.07634 1025 ft 3 kts 102°
2026-04-27 14:18 49.49600 11.07629 1026 ft 0 kts 99°
2026-04-27 14:20 49.49596 11.07667 1026 ft 11 kts 98°
2026-04-27 14:21 49.49581 11.07814 1027 ft 13 kts 98°
2026-04-27 14:21 49.49569 11.07944 1027 ft 11 kts 98°
2026-04-27 14:21 49.49558 11.08061 1026 ft 12 kts 99°
2026-04-27 14:21 49.49543 11.08194 1025 ft 14 kts 99°
2026-04-27 14:22 49.49541 11.08331 1030 ft 10 kts 56°
2026-04-27 14:22 49.49591 11.08359 1032 ft 5 kts 20°
2026-04-27 14:22 49.49614 11.08444 1034 ft 15 kts 96°
2026-04-27 14:22 49.49595 11.08648 1036 ft 24 kts 99°
2026-04-27 14:23 49.49566 11.08932 1038 ft 28 kts 98°
2026-04-27 14:23 49.49545 11.09147 1042 ft 17 kts 98°
2026-04-27 14:23 49.49530 11.09302 1044 ft 13 kts 98°
2026-04-27 14:23 49.49551 11.09404 1047 ft 8 kts 54°
2026-04-27 14:24 49.49581 11.09466 1049 ft 6 kts 53°
2026-04-27 14:24 49.49609 11.09524 1050 ft 9 kts 53°
2026-04-27 14:24 49.49672 11.09574 1052 ft 12 kts 355°
2026-04-27 14:24 49.49705 11.09470 1052 ft 13 kts 281°
2026-04-27 14:25 49.49730 11.09230 1047 ft 48 kts 278°
2026-04-27 14:25 49.49820 11.08338 1034 ft 117 kts 278°
2026-04-27 14:25 49.49965 11.06820 1071 ft 164 kts 277°
2026-04-27 14:25 49.50115 11.05146 1824 ft 157 kts 279°
2026-04-27 14:26 49.50280 11.03444 2455 ft 165 kts 280°
2026-04-27 14:26 49.50461 11.01614 2770 ft 186 kts 279°
2026-04-27 14:26 49.50671 10.99524 3072 ft 209 kts 279°
2026-04-27 14:26 49.50905 10.97179 3417 ft 235 kts 279°
2026-04-27 14:27 49.51254 10.94601 3852 ft 257 kts 294°
2026-04-27 14:27 49.51862 10.93186 4266 ft 262 kts 317°
2026-04-27 14:27 49.52934 10.92128 4838 ft 265 kts 341°
2026-04-27 14:28 49.54756 10.91663 5736 ft 267 kts 359°
2026-04-27 14:28 49.55212 10.91659 5966 ft 268 kts
2026-04-27 14:28 49.56646 10.91779 6659 ft 271 kts
2026-04-27 14:28 49.56726 10.91789 6695 ft 271 kts
2026-04-27 14:29 49.57336 10.91876 6972 ft 272 kts
2026-04-27 14:29 49.59231 10.92171 7814 ft 276 kts
2026-04-27 14:29 49.61153 10.92433 8670 ft 279 kts
2026-04-27 14:29 49.63103 10.92629 9523 ft 282 kts
2026-04-27 14:30 49.65074 10.92765 10349 ft 286 kts
2026-04-27 14:30 49.67126 10.92860 10702 ft 307 kts
2026-04-27 14:30 49.69339 10.92873 10962 ft 329 kts 354°
2026-04-27 14:30 49.71611 10.92182 11502 ft 337 kts 340°
2026-04-27 14:31 49.73841 10.90979 12210 ft 341 kts 339°
2026-04-27 14:31 49.76101 10.89760 12962 ft 345 kts 339°
2026-04-27 14:31 49.78372 10.88544 13698 ft 348 kts 339°
2026-04-27 14:31 49.80676 10.87319 14375 ft 351 kts 339°
2026-04-27 14:32 49.82999 10.86084 15039 ft 354 kts 339°
2026-04-27 14:32 49.85338 10.84836 15685 ft 357 kts 339°
2026-04-27 14:32 49.87696 10.83574 16324 ft 359 kts 338°
2026-04-27 14:32 49.90066 10.82300 16970 ft 362 kts 338°
2026-04-27 14:33 49.92463 10.81009 17634 ft 365 kts 338°
2026-04-27 14:33 49.94839 10.79729 18226 ft 368 kts 338°
2026-04-27 14:33 49.97266 10.78419 18790 ft 371 kts 338°
2026-04-27 14:33 49.99705 10.77101 19317 ft 373 kts 338°
2026-04-27 14:34 50.02169 10.75772 19850 ft 375 kts 338°
2026-04-27 14:34 50.04638 10.74429 20369 ft 377 kts 336°
2026-04-27 14:34 50.06223 10.73324 20701 ft 376 kts 329°
2026-04-27 14:34 50.09077 10.70235 21363 ft 374 kts 315°
2026-04-27 14:35 50.10299 10.68344 21699 ft 375 kts 311°
2026-04-27 14:35 50.12101 10.65395 22111 ft 377 kts 311°
2026-04-27 14:35 50.13912 10.62428 22198 ft 378 kts 311°
2026-04-27 14:35 50.15728 10.59451 22209 ft 380 kts 311°
2026-04-27 14:36 50.17548 10.56469 22220 ft 380 kts 311°
2026-04-27 14:36 50.19372 10.53471 22209 ft 380 kts 311°
2026-04-27 14:36 50.21188 10.50475 22212 ft 380 kts 311°
2026-04-27 14:36 50.23006 10.47474 22212 ft 380 kts 311°
2026-04-27 14:37 50.24838 10.44494 22211 ft 380 kts 312°
2026-04-27 14:37 50.26685 10.41525 22212 ft 380 kts 312°
2026-04-27 14:37 50.28537 10.38571 22211 ft 380 kts 312°
2026-04-27 14:37 50.30390 10.35619 22212 ft 380 kts 312°
2026-04-27 14:38 50.32237 10.32655 22212 ft 380 kts 312°
2026-04-27 14:38 50.34076 10.29687 22208 ft 380 kts 312°
2026-04-27 14:38 50.35895 10.26688 22208 ft 380 kts 310°
2026-04-27 14:38 50.37629 10.23569 22208 ft 379 kts 309°
2026-04-27 14:39 50.39366 10.20448 22205 ft 380 kts 310°
2026-04-27 14:39 50.41149 10.17399 22207 ft 380 kts 311°
2026-04-27 14:39 50.42974 10.14401 22208 ft 380 kts 312°
2026-04-27 14:39 50.44813 10.11423 22228 ft 380 kts 311°
2026-04-27 14:40 50.46635 10.08409 22218 ft 380 kts 311°
2026-04-27 14:40 50.48440 10.05367 22221 ft 380 kts 310°
2026-04-27 14:40 50.50226 10.02311 22221 ft 380 kts 310°
2026-04-27 14:40 50.52009 9.99238 22217 ft 380 kts 310°
2026-04-27 14:41 50.53782 9.96177 22216 ft 380 kts 310°
2026-04-27 14:41 50.55538 9.93063 22217 ft 380 kts 309°
2026-04-27 14:41 50.57241 9.89887 22217 ft 379 kts 308°
2026-04-27 14:41 50.58915 9.86679 22221 ft 379 kts 307°
2026-04-27 14:42 50.60581 9.83454 22222 ft 379 kts 307°
2026-04-27 14:42 50.62243 9.80238 22220 ft 379 kts 307°
2026-04-27 14:42 50.63913 9.77020 22221 ft 379 kts 307°
2026-04-27 14:42 50.65563 9.73861 22221 ft 379 kts 307°
2026-04-27 14:43 50.67251 9.70648 22225 ft 379 kts 308°
2026-04-27 14:43 50.68928 9.67452 22224 ft 379 kts 308°
2026-04-27 14:43 50.70608 9.64251 22225 ft 379 kts 307°
2026-04-27 14:43 50.72119 9.60858 22223 ft 377 kts 298°
2026-04-27 14:44 50.73194 9.57088 22222 ft 376 kts 288°
2026-04-27 14:44 50.73835 9.53099 22220 ft 376 kts 282°
2026-04-27 14:44 50.74379 9.49047 22220 ft 376 kts 282°
2026-04-27 14:44 50.74923 9.45015 22220 ft 376 kts 282°
2026-04-27 14:45 50.75470 9.40985 22219 ft 376 kts 282°
2026-04-27 14:45 50.76023 9.36937 22212 ft 376 kts 282°
2026-04-27 14:45 50.76576 9.32896 22213 ft 376 kts 282°
2026-04-27 14:45 50.77125 9.28872 22215 ft 376 kts 282°
2026-04-27 14:46 50.77672 9.24836 22216 ft 376 kts 282°
2026-04-27 14:46 50.78216 9.20792 22216 ft 376 kts 282°
2026-04-27 14:46 50.78757 9.16743 22217 ft 376 kts 282°
2026-04-27 14:46 50.79288 9.12753 22218 ft 376 kts 282°
2026-04-27 14:47 50.79833 9.08657 22220 ft 376 kts 282°
2026-04-27 14:47 50.80362 9.04664 22226 ft 376 kts 282°
2026-04-27 14:47 50.80895 9.00626 22223 ft 376 kts 282°
2026-04-27 14:47 50.81430 8.96583 22223 ft 376 kts 282°
2026-04-27 14:48 50.81967 8.92535 22224 ft 376 kts 282°
2026-04-27 14:48 50.83733 8.84791 22220 ft 376 kts 297°
2026-04-27 14:48 50.84963 8.81133 22219 ft 377 kts 296°
2026-04-27 14:49 50.86188 8.77477 22220 ft 377 kts 296°
2026-04-27 14:49 50.87413 8.73806 22220 ft 377 kts 296°
2026-04-27 14:49 50.88632 8.70141 22219 ft 377 kts 296°
2026-04-27 14:49 50.89849 8.66471 22217 ft 377 kts 296°
2026-04-27 14:50 50.91065 8.62799 22216 ft 377 kts 296°
2026-04-27 14:50 50.92282 8.59124 22215 ft 377 kts 296°
2026-04-27 14:50 50.93501 8.55439 22214 ft 377 kts 296°
2026-04-27 14:50 50.94717 8.51763 22213 ft 377 kts 296°
2026-04-27 14:51 50.95936 8.48069 22204 ft 377 kts 296°
2026-04-27 14:51 50.97146 8.44389 22208 ft 376 kts 296°
2026-04-27 14:51 50.98352 8.40710 22211 ft 376 kts 296°
2026-04-27 14:51 50.99552 8.37059 22005 ft 367 kts 297°
2026-04-27 14:52 51.00897 8.33722 21748 ft 361 kts 305°
2026-04-27 14:52 51.02558 8.30762 21486 ft 360 kts 314°
2026-04-27 14:52 51.04496 8.28242 21246 ft 361 kts 322°
2026-04-27 14:52 51.06658 8.26186 20994 ft 362 kts 327°
2026-04-27 14:53 51.08849 8.24245 20744 ft 360 kts 327°
2026-04-27 14:53 51.11033 8.22302 20497 ft 359 kts 327°
2026-04-27 14:53 51.13215 8.20361 20242 ft 358 kts 327°
2026-04-27 14:53 51.15385 8.18428 19995 ft 357 kts 327°
2026-04-27 14:54 51.17547 8.16499 19754 ft 356 kts 327°
2026-04-27 14:54 51.19703 8.14572 19512 ft 354 kts 327°
2026-04-27 14:54 51.21846 8.12652 19270 ft 353 kts 327°
2026-04-27 14:54 51.23982 8.10738 19031 ft 352 kts 327°
2026-04-27 14:55 51.26111 8.08830 18798 ft 351 kts 327°
2026-04-27 14:55 51.28238 8.06923 18560 ft 350 kts 327°
2026-04-27 14:55 51.30358 8.05017 18309 ft 349 kts 327°
2026-04-27 14:55 51.32470 8.03114 18042 ft 348 kts 327°
2026-04-27 14:56 51.34579 8.01212 17772 ft 347 kts 327°
2026-04-27 14:56 51.36679 7.99318 17498 ft 347 kts 327°
2026-04-27 14:56 51.38774 7.97425 17250 ft 346 kts 327°
2026-04-27 14:56 51.40871 7.95532 16989 ft 345 kts 327°
2026-04-27 14:57 51.42959 7.93648 16725 ft 344 kts 327°
2026-04-27 14:57 51.45045 7.91769 16472 ft 343 kts 328°
2026-04-27 14:57 51.47122 7.89905 16218 ft 342 kts 329°
2026-04-27 14:57 51.49308 7.88372 15964 ft 344 kts 338°
2026-04-27 14:58 51.51606 7.87265 15715 ft 345 kts 340°
2026-04-27 14:58 51.53900 7.86177 15465 ft 344 kts 340°
2026-04-27 14:58 51.56193 7.85082 15232 ft 343 kts 340°
2026-04-27 14:58 51.58485 7.83982 14983 ft 343 kts 340°
2026-04-27 14:59 51.60762 7.82890 14733 ft 342 kts 340°
2026-04-27 14:59 51.63040 7.81794 14360 ft 341 kts 340°
2026-04-27 14:59 51.65278 7.80715 13973 ft 339 kts 341°
2026-04-27 14:59 51.67532 7.79627 13537 ft 337 kts 341°
2026-04-27 15:00 51.69774 7.78544 13118 ft 336 kts 341°
2026-04-27 15:00 51.72008 7.77468 12694 ft 334 kts 341°
2026-04-27 15:00 51.74260 7.76375 12273 ft 332 kts 340°
2026-04-27 15:00 51.76249 7.74696 11861 ft 325 kts 319°
2026-04-27 15:01 51.77662 7.71922 11461 ft 319 kts 297°
2026-04-27 15:01 51.78639 7.68710 11059 ft 318 kts 294°
2026-04-27 15:01 51.79565 7.65460 10669 ft 318 kts 294°
2026-04-27 15:01 51.80486 7.62176 10288 ft 315 kts 294°
2026-04-27 15:02 51.81358 7.59002 9874 ft 312 kts 294°
2026-04-27 15:02 51.82231 7.55796 9448 ft 310 kts 294°
2026-04-27 15:02 51.83095 7.52620 9026 ft 308 kts 294°
2026-04-27 15:02 51.84007 7.49495 8618 ft 305 kts 302°
2026-04-27 15:03 51.85466 7.47051 8203 ft 303 kts 327°
2026-04-27 15:03 51.87390 7.45725 7806 ft 301 kts 342°
2026-04-27 15:03 51.89383 7.44795 7411 ft 292 kts 343°
2026-04-27 15:03 51.91303 7.43940 7008 ft 279 kts 343°
2026-04-27 15:04 51.93164 7.43115 6603 ft 277 kts 343°
2026-04-27 15:04 51.95015 7.42288 6200 ft 275 kts 343°
2026-04-27 15:04 51.96858 7.41449 5793 ft 274 kts 343°
2026-04-27 15:04 51.98676 7.40614 5391 ft 270 kts 343°
2026-04-27 15:05 52.00466 7.39779 4982 ft 263 kts 343°
2026-04-27 15:05 52.02185 7.38964 4567 ft 252 kts 343°
2026-04-27 15:05 52.03850 7.38274 4151 ft 242 kts 356°
2026-04-27 15:05 52.05440 7.38666 3856 ft 230 kts 22°
2026-04-27 15:06 52.06789 7.39977 3637 ft 225 kts 42°
2026-04-27 15:06 52.07752 7.41924 3394 ft 220 kts 62°
2026-04-27 15:06 52.08295 7.44185 3112 ft 211 kts 70°
2026-04-27 15:06 52.08768 7.46401 2839 ft 205 kts 70°
2026-04-27 15:07 52.09232 7.48574 2556 ft 200 kts 69°
2026-04-27 15:07 52.09683 7.50684 2294 ft 195 kts 69°
2026-04-27 15:07 52.10121 7.52742 2052 ft 187 kts 70°
2026-04-27 15:07 52.10539 7.54701 1769 ft 180 kts 69°
2026-04-27 15:08 52.10937 7.56571 1528 ft 169 kts 69°
2026-04-27 15:08 52.11303 7.58299 1282 ft 154 kts 69°
2026-04-27 15:08 52.11618 7.59806 1182 ft 134 kts 70°
2026-04-27 15:08 52.11928 7.61242 893 ft 137 kts 68°
2026-04-27 15:09 52.12247 7.62676 694 ft 134 kts 68°
2026-04-27 15:09 52.12544 7.64100 565 ft 133 kts 69°
2026-04-27 15:09 52.12847 7.65539 370 ft 136 kts 69°
2026-04-27 15:09 52.13149 7.66986 208 ft 135 kts 70°
2026-04-27 15:10 52.13434 7.68313 170 ft 103 kts 71°
2026-04-27 15:10 52.13610 7.69146 172 ft 53 kts 71°
2026-04-27 15:10 52.13707 7.69619 169 ft 41 kts 71°
2026-04-27 15:10 52.13764 7.69967 165 ft 27 kts 105°
2026-04-27 15:11 52.13623 7.69998 166 ft 18 kts 227°
2026-04-27 15:11 52.13572 7.69820 165 ft 20 kts 251°
2026-04-27 15:11 52.13514 7.69541 167 ft 29 kts 251°
2026-04-27 15:11 52.13468 7.69326 167 ft 0 kts 250°
2026-04-27 15:12 52.13463 7.69305 167 ft 6 kts 251°
2026-04-27 15:12 52.13430 7.69239 165 ft 15 kts 204°
2026-04-27 15:13 52.13322 7.69283 165 ft 15 kts 159°
2026-04-27 15:13 52.13243 7.69355 166 ft 12 kts 116°
2026-04-27 15:13 52.13262 7.69482 167 ft 12 kts 71°
2026-04-27 15:13 52.13246 7.69525 167 ft 2 kts 127°
2026-04-27 15:14 52.13215 7.69553 168 ft 6 kts 203°
2026-04-27 15:14 52.13206 7.69547 168 ft 0 kts 200°